Temperature
19 19 20 20 23 23 23 23 23 23 23 22 21 21 22 23 22 22 20 20 20 19 18 16 15 14 13 13 12 11 11 11 10 10 10 9 9 9 9 9 9 9 9 9 9 9 9 10 10
19 19 20 22 23 22 22 23 23 23 22 20 20 21 22 22 21 20 20 20 19 19 18 16 15 14 13 13 12 11 11 11 10 10 10 9 9 9 9 9 9 8 9 9 9 9 9 10 10
19 20 21 23 22 22 22 23 23 22 20 20 21 21 22 22 20 19 20 20 19 19 18 16 16 14 13 12 12 11 11 10 10 10 9 9 9 9 9 9 8 9 9 9 9 9 9 9 10
19 20 22 23 22 22 23 23 22 22 21 20 21 22 21 20 20 20 20 19 19 18 18 17 16 14 13 12 12 11 11 10 10 10 9 9 9 9 9 9 9 9 9 9 9 9 9 9 10
19 22 23 22 22 22 23 22 21 22 22 21 21 22 22 20 20 20 19 19 19 18 17 16 16 14 13 12 12 11 11 10 10 10 9 9 9 9 9 9 9 9 9 9 9 9 9 9 9
21 23 22 22 22 22 23 21 21 22 22 21 20 22 22 20 20 20 19 19 18 18 17 16 16 14 13 12 12 11 11 10 10 10 9 9 9 9 9 9 9 9 9 9 9 9 9 9 9
22 22 22 22 22 22 22 21 21 22 22 22 21 21 22 20 20 20 19 19 18 17 17 16 15 14 13 12 12 11 11 10 10 10 9 9 9 9 9 9 9 9 9 9 9 9 9 9 9
20 22 21 21 21 22 21 20 20 21 22 20 19 21 22 19 19 19 19 18 18 17 17 16 15 13 12 12 11 11 11 10 10 10 9 9 9 9 8 8 8 9 9 9 9 9 9 9 9
20 22 21 21 21 22 21 21 20 19 20 19 19 20 20 19 19 18 18 18 18 17 17 16 14 13 12 11 11 11 10 10 10 9 9 9 8 8 8 8 8 8 8 8 8 8 9 9 9
21 21 21 21 21 21 21 20 20 20 20 20 20 19 18 18 18 18 17 17 17 17 17 16 15 13 12 11 11 10 10 10 10 9 9 9 8 8 8 8 9 8 8 8 8 8 8 8 8
21 21 21 20 19 19 19 20 19 19 21 20 19 18 17 18 18 18 17 16 16 16 16 16 15 14 12 12 11 10 10 9 9 9 9 9 8 8 9 8 8 8 8 8 8 8 8 8 8
20 20 19 20 17 18 18 19 19 18 19 18 17 17 17 16 16 17 17 16 16 16 16 16 15 14 13 12 11 10 10 10 9 9 9 9 9 9 8 8 8 8 8 8 8 8 8 8 8
20 20 18 17 16 16 17 18 18 18 17 16 16 16 16 16 16 16 16 16 16 16 16 16 15 14 14 12 11 11 10 10 10 9 9 9 9 9 8 8 8 8 8 8 8 8 8 8 8
19 18 18 18 17 16 17 18 17 18 16 16 16 15 15 15 16 16 17 17 17 17 16 16 15 14 14 13 12 11 10 10 9 9 9 9 8 8 8 8 8 8 8 8 8 7 7 8 8
17 19 20 18 17 17 17 19 19 17 16 17 16 15 15 15 16 17 17 17 17 17 16 16 15 14 14 13 12 11 11 10 10 9 9 9 8 8 8 8 8 8 8 7 7 7 7 7 7
18 19 20 19 18 17 18 20 20 16 16 17 16 16 15 15 15 17 17 18 18 17 17 16 16 15 14 13 12 11 11 10 10 9 9 9 8 8 8 7 7 7 7 7 7 7 7 7 7
19 20 20 20 18 18 19 20 20 16 16 17 16 16 15 15 15 17 17 18 18 17 17 16 16 15 14 13 12 11 11 10 10 9 9 9 8 8 8 7 7 7 7 7 7 7 6 6 6
20 20 19 19 19 18 18 19 19 17 16 17 16 16 15 14 15 16 17 17 17 17 17 16 16 15 14 13 12 11 11 11 10 10 10 9 9 8 8 8 7 7 7 7 7 7 6 6 6
18 18 19 19 17 17 18 18 19 17 17 17 16 16 15 14 14 15 16 16 16 16 16 16 15 14 14 13 12 12 11 11 11 10 10 10 9 9 8 8 8 7 7 7 7 6 6 6 6
17 18 18 18 16 16 17 18 18 17 17 16 16 15 14 14 14 15 15 16 16 15 15 15 14 14 13 13 12 12 11 11 11 10 10 10 9 9 9 8 8 8 7 8 7 7 6 6 6
17 18 18 18 17 16 16 19 18 17 16 15 15 14 14 13 13 14 15 15 15 14 14 14 13 13 13 12 12 12 11 11 11 10 10 10 9 9 9 9 8 8 8 8 8 7 6 6 5
18 17 16 16 17 19 17 19 19 18 18 17 16 15 14 13 13 13 14 14 14 14 13 13 13 13 12 12 12 11 11 10 10 10 10 10 9 9 9 8 8 8 7 7 7 7 6 5 5
17 15 15 15 16 17 17 18 20 17 18 18 17 15 13 12 12 13 14 14 13 13 13 12 12 12 12 12 11 11 10 10 10 9 9 9 9 8 8 8 8 7 7 7 7 6 6 5 5
14 15 14 15 16 17 18 18 20 19 19 19 17 15 13 12 12 12 13 13 12 12 12 12 12 12 11 11 11 10 9 9 9 8 8 8 8 8 7 7 7 7 7 6 6 6 6 5 5
15 17 18 18 18 19 16 16 19 18 18 18 17 15 13 12 12 12 12 12 12 12 12 11 11 11 11 10 10 9 8 8 8 7 7 7 7 7 7 6 6 6 6 6 6 5 5 5 4
16 17 18 19 19 19 15 17 19 16 15 14 15 14 12 12 11 11 11 11 11 11 11 11 11 10 10 9 9 8 8 7 7 7 6 6 6 6 6 6 6 6 5 5 5 5 4 4 4
16 17 17 18 16 17 19 18 18 15 15 14 14 13 12 11 11 11 11 11 11 11 10 10 10 9 9 8 8 7 7 6 6 6 6 6 6 5 6 5 5 5 5 5 4 3 3 3 2
15 16 16 17 17 18 19 18 19 17 16 15 14 13 12 11 10 10 10 10 10 10 10 9 9 8 8 7 7 7 6 6 6 5 5 5 5 5 5 5 4 4 4 3 2 2 2 1 1
14 15 16 17 17 18 18 19 18 18 16 16 15 14 12 11 10 10 10 10 10 9 9 9 8 8 7 7 6 6 6 5 5 5 5 4 4 4 4 4 3 3 3 2 1 1 0 0 -0
16 16 16 17 17 16 17 19 16 16 15 15 14 12 11 11 10 10 9 9 9 9 8 8 7 7 6 6 6 5 5 5 4 4 4 4 4 3 3 2 2 2 1 1 0 -0 -0 -1 -1
Wind_Speed
1 2 3 3 4 3 2 1 2 3 1 1 0 2 4 5 5 4 2 7 7 14 21 23 22 20 18 16 15 13 12 11 10 9 9 9 9 9 9 9 9 10 10 10 10 11 11 11 12
1 2 3 3 4 4 3 1 3 5 2 0 3 4 4 3 3 3 2 8 10 15 21 21 22 21 19 17 15 14 13 11 10 9 9 8 8 8 8 8 8 9 9 9 9 10 10 10 11
2 3 3 4 4 3 2 2 5 4 2 3 3 3 4 4 1 0 3 10 12 16 20 20 23 21 19 17 16 15 13 11 10 10 9 8 8 7 7 7 7 7 8 8 8 8 9 9 9
3 3 3 4 4 2 2 3 5 4 1 3 4 4 3 1 1 3 3 11 12 16 19 20 23 21 20 18 17 15 14 12 11 10 9 8 8 7 7 7 6 6 6 6 7 7 7 7 7
3 3 5 5 4 2 3 4 3 3 1 2 3 5 5 2 2 1 4 10 12 15 18 20 23 21 20 19 17 16 14 13 12 11 10 9 8 8 7 6 6 5 5 5 5 5 6 6 6
2 3 6 6 5 3 4 2 2 3 2 2 4 6 5 4 2 1 4 9 11 14 17 18 22 21 20 19 18 17 15 14 13 11 10 9 8 8 7 6 6 5 4 4 4 4 4 4 4
2 4 6 6 6 5 2 1 2 4 6 5 3 6 4 4 3 2 5 8 10 14 16 17 20 20 20 19 18 17 16 14 13 12 11 10 9 8 8 7 6 5 4 3 3 2 2 2 2
1 3 5 6 6 6 1 2 3 6 8 2 3 6 7 3 3 3 5 8 10 12 15 16 17 18 18 18 18 17 16 15 14 12 11 10 9 8 8 8 7 6 5 4 3 2 2 1 0
2 6 8 7 6 5 2 4 4 4 7 5 6 9 5 2 2 5 6 9 11 12 14 16 16 17 17 16 17 17 16 15 14 13 12 11 10 9 9 8 7 7 6 6 5 5 4 3 3
3 7 8 4 4 5 5 7 7 6 9 9 8 7 3 4 5 8 10 12 14 15 16 15 16 16 15 14 14 14 14 14 14 12 12 11 9 8 7 6 7 7 6 6 6 6 6 7 6
3 6 4 4 5 5 6 7 4 6 9 8 10 11 8 7 8 10 11 12 13 14 15 15 15 15 15 13 13 11 11 12 13 13 11 10 9 8 8 7 8 9 8 8 6 7 8 8 7
4 5 5 4 1 3 6 6 6 8 8 8 10 11 10 9 9 10 11 11 10 12 15 15 16 15 15 14 12 12 11 10 11 11 12 10 8 9 8 8 8 8 8 9 9 9 9 10 11
5 4 4 4 5 6 7 9 7 6 6 8 7 6 7 7 8 8 8 9 10 12 13 15 16 16 15 14 12 12 12 12 12 11 12 13 10 10 10 10 10 10 10 10 10 11 11 12 12
2 5 7 7 6 3 4 4 3 3 5 5 5 6 7 7 7 5 4 7 9 11 12 13 15 16 16 14 12 12 12 12 12 12 14 15 13 12 11 11 11 12 12 12 12 13 12 12 12
3 6 7 3 2 2 4 5 4 1 5 4 5 7 9 10 9 7 4 3 6 8 10 12 13 15 15 15 14 12 12 12 12 13 14 15 16 14 13 12 12 13 13 14 13 14 13 12 12
3 5 4 2 0 1 4 4 3 3 5 4 5 7 9 11 12 11 7 2 2 5 8 9 9 12 13 13 13 12 12 12 12 13 13 16 17 17 15 13 13 15 14 13 12 11 11 12 12
4 4 4 2 1 1 4 6 1 3 3 2 5 7 9 11 14 13 11 7 5 4 6 7 9 9 10 11 10 10 10 11 12 12 13 14 16 17 16 15 15 15 13 12 11 12 12 13 14
4 5 5 5 1 4 7 9 6 3 1 4 6 7 9 12 13 12 12 10 8 6 6 6 6 7 7 6 6 6 8 9 11 11 13 15 15 16 16 15 17 16 12 12 12 14 14 13 13
5 7 9 7 2 4 7 9 7 2 5 6 7 8 9 11 11 12 12 11 11 9 7 6 5 5 5 5 5 5 6 7 8 10 13 14 15 15 15 14 15 14 12 14 15 14 15 14 12
7 8 10 6 1 4 7 9 4 4 7 6 6 7 9 10 11 12 12 12 12 11 9 7 6 5 5 4 3 3 3 4 5 7 10 13 14 15 14 15 13 13 12 15 15 15 13 12 10
8 10 9 6 3 3 5 4 5 6 6 6 5 6 8 9 10 11 12 13 12 11 9 7 6 5 4 4 3 2 2 3 4 5 6 8 11 13 14 15 14 13 13 13 14 14 16 13 12
8 6 7 5 5 3 3 3 7 10 10 8 8 7 8 8 9 10 11 12 11 10 8 8 7 6 4 3 2 3 3 4 4 5 5 7 8 10 12 14 14 14 12 14 14 14 14 15 14
3 3 3 3 5 6 5 6 6 10 14 13 11 9 8 8 9 10 10 10 10 9 8 8 8 7 4 2 1 2 3 4 5 6 7 7 7 9 10 12 12 12 12 14 15 15 15 14 15
6 4 3 2 3 5 4 6 5 9 15 16 13 11 10 9 9 10 9 9 9 8 8 7 8 7 5 3 2 1 3 5 6 7 8 7 6 7 9 10 11 12 12 13 14 15 17 16 17
6 5 4 4 5 3 3 5 5 4 6 11 14 13 11 10 10 10 10 9 8 8 7 6 7 6 5 4 3 3 4 5 7 8 8 9 8 8 10 9 10 11 12 13 14 15 16 17 18
8 6 5 4 3 1 3 6 1 3 2 4 9 12 11 10 9 9 8 8 7 6 6 6 6 5 5 4 4 4 4 5 6 8 9 10 9 10 12 12 12 13 14 14 14 14 16 16 17
6 6 2 2 2 4 5 4 4 3 4 6 10 12 11 10 9 9 8 6 6 5 5 4 4 4 4 4 5 5 6 7 8 10 10 9 10 10 13 13 14 14 14 15 15 14 16 16 17
2 5 4 4 4 5 4 5 4 7 8 9 11 12 11 10 9 8 7 5 4 4 3 3 3 3 4 5 5 6 8 8 9 10 11 12 13 13 14 14 15 15 15 16 15 15 16 17 18
6 5 4 3 3 4 4 2 1 5 7 10 11 10 9 9 9 8 6 5 3 2 1 1 2 3 4 6 7 8 9 10 11 11 12 12 13 14 15 15 16 16 16 16 16 17 18 19 19
6 7 8 6 5 4 5 3 4 3 4 7 8 7 7 8 8 7 6 4 3 1 0 1 2 4 5 6 8 9 10 11 12 12 13 14 14 15 15 16 16 17 17 17 17 18 18 19 20
Wind_Direction
216 229 224 219 212 218 192 99 356 347 324 13 276 251 309 335 344 350 61 160 156 163 168 172 174 172 172 171 167 163 157 151 144 136 128 123 116 111 105 97 89 83 80 77 75 74 73 71 69
229 219 215 219 228 205 160 98 357 351 354 261 215 233 262 283 283 320 117 161 166 165 169 173 173 174 174 173 170 167 163 158 154 146 140 135 126 116 110 103 96 90 85 80 77 76 76 75 71
192 239 215 201 221 217 151 42 353 343 293 235 223 238 284 315 217 48 76 159 167 168 172 172 172 175 176 176 174 171 168 166 163 156 152 148 140 129 120 113 105 99 92 86 81 78 78 78 75
209 198 205 219 204 212 296 343 343 327 200 221 260 261 246 261 19 56 108 163 169 170 174 171 175 177 178 179 177 174 173 173 172 166 162 159 151 144 135 125 117 110 102 94 86 80 78 79 81
226 211 204 215 225 240 286 323 316 306 276 204 259 285 287 133 101 73 147 171 175 172 175 173 178 180 181 181 180 178 178 178 178 174 172 169 162 154 146 140 134 126 115 105 94 84 79 77 81
194 218 224 228 238 267 282 279 268 279 289 259 256 283 289 115 130 119 164 177 180 175 176 174 181 183 184 185 184 182 182 183 184 181 181 179 174 167 162 161 155 148 137 122 108 95 83 78 77
229 230 245 253 265 275 286 206 264 302 294 291 267 281 281 137 81 127 168 177 181 179 180 179 183 187 188 189 188 187 187 188 189 188 188 188 185 182 177 177 174 170 165 156 141 120 101 88 84
295 242 244 253 266 281 232 216 269 291 301 317 247 272 292 82 91 141 162 177 183 185 187 185 187 189 191 192 192 190 190 192 193 194 193 192 192 195 191 193 192 192 193 193 192 194 192 189 126
239 245 252 259 267 279 237 274 287 266 274 260 245 272 322 84 149 172 177 186 190 193 194 193 191 191 193 193 191 192 193 195 196 198 192 194 205 205 202 202 196 209 214 218 222 225 227 229 225
223 247 258 258 258 282 287 286 299 277 274 274 268 262 253 239 224 219 212 203 198 197 197 196 197 193 194 193 193 198 198 197 202 206 200 205 210 211 212 178 200 220 232 236 240 243 236 239 240
233 252 258 246 254 274 283 287 277 278 288 303 306 310 303 267 249 241 235 224 211 202 197 201 200 197 197 194 198 199 201 202 208 211 206 204 209 212 217 216 210 220 229 237 231 237 241 247 253
245 250 254 263 223 256 276 287 277 262 282 328 313 306 301 284 270 255 246 234 217 205 201 201 201 201 202 202 201 203 202 204 207 208 207 206 213 222 225 230 233 234 234 240 244 249 250 252 254
244 262 255 258 263 268 272 268 276 270 305 322 326 327 323 311 297 277 256 240 221 210 203 202 202 203 203 208 209 209 210 211 210 209 211 214 219 226 229 235 238 241 244 244 248 252 256 255 256
269 270 278 281 269 242 254 267 246 266 339 341 2 12 7 357 342 320 268 234 219 212 205 200 203 205 205 208 212 214 217 217 220 216 218 221 227 232 233 240 242 245 245 248 251 255 259 259 257
266 281 277 235 237 224 264 267 206 27 337 3 32 35 31 27 20 9 343 246 217 207 202 199 202 205 208 212 217 221 222 224 225 226 227 227 232 236 238 244 247 248 249 250 252 256 259 260 260
242 258 249 161 298 232 269 275 138 25 350 26 45 45 43 39 35 30 27 54 159 179 188 191 194 204 209 214 218 223 228 230 232 234 235 235 237 240 243 247 251 253 252 249 250 254 255 256 258
232 250 260 249 147 285 271 274 220 351 342 70 67 58 52 46 38 35 40 58 88 131 158 175 187 198 206 213 220 227 233 236 240 240 241 242 243 243 245 250 255 257 254 251 253 255 256 261 263
250 260 268 277 273 287 272 269 290 334 193 123 93 77 64 52 41 40 48 60 73 90 118 145 169 185 191 201 215 226 237 242 245 246 247 248 247 246 247 253 257 258 255 253 254 256 258 260 267
264 264 272 281 307 284 271 278 290 287 161 135 109 90 77 67 59 55 58 65 74 79 92 110 136 158 170 178 198 218 234 241 244 247 251 252 251 250 248 252 257 255 253 255 258 259 261 260 262
236 258 270 274 223 272 287 284 274 175 156 136 118 101 90 84 73 63 64 66 68 73 79 91 109 137 163 177 193 225 253 262 264 260 258 255 255 254 253 253 255 256 256 257 257 257 258 259 250
233 247 265 276 284 226 288 243 172 159 155 140 125 113 101 91 85 78 72 69 70 69 70 79 91 115 146 169 183 206 247 263 262 266 267 265 261 258 254 255 257 258 255 257 257 253 250 253 252
252 243 244 250 274 265 282 253 182 175 177 170 153 136 118 106 98 90 84 76 71 70 74 79 86 94 113 156 196 232 269 289 302 304 292 288 275 266 260 258 258 259 257 256 257 254 251 251 254
225 109 184 238 255 268 227 243 191 179 192 185 169 152 135 121 112 101 92 87 81 78 79 82 84 83 88 110 176 268 287 300 306 307 299 298 289 274 266 261 260 258 257 257 257 256 252 247 248
140 130 127 187 225 245 210 225 209 190 202 188 175 164 152 138 126 114 107 101 92 86 82 82 81 76 73 73 58 332 318 316 315 316 313 309 301 290 278 268 263 261 260 259 258 257 254 251 250
186 220 240 224 217 228 147 235 245 163 191 193 180 170 160 151 142 132 124 112 101 91 84 81 77 70 62 54 33 1 332 319 315 316 313 309 304 300 297 288 276 272 266 264 263 261 259 255 253
197 226 251 271 264 250 193 238 204 118 164 197 183 167 161 160 152 143 133 123 111 98 87 77 69 60 47 32 10 347 330 317 313 311 307 302 300 299 300 295 286 280 277 272 267 265 262 260 257
177 207 266 271 284 271 241 251 254 158 177 173 170 168 170 168 163 155 145 134 120 105 86 71 60 48 29 9 350 338 329 319 314 309 304 300 297 298 297 294 290 286 282 277 274 269 267 265 262
263 157 167 212 249 259 253 243 220 180 175 166 169 173 172 170 169 165 158 145 128 110 92 70 48 26 3 348 341 327 322 318 312 307 304 302 301 300 297 295 293 290 287 283 278 275 272 271 268
165 181 201 205 256 264 271 243 143 179 172 173 173 175 175 176 175 171 164 153 141 124 93 45 18 355 344 336 329 322 320 316 311 306 304 304 301 300 298 297 295 292 290 287 283 279 278 275 274
220 208 194 218 222 232 271 270 108 177 167 172 173 173 177 176 173 171 167 162 159 157 337 340 335 331 329 325 320 317 314 312 309 308 308 306 303 301 299 297 294 291 289 287 285 284 282 279 277
Height
1551 1553 1554 1556 1556 1554 1555 1554 1553 1553 1553 1556 1557 1556 1555 1554 1555 1558 1556 1553 1553 1553 1554 1555 1556 1558 1560 1562 1563 1564 1565 1565 1566 1566 1566 1566 1566 1566 1566 1566 1566 1565 1564 1564 1563 1562 1561 1561 1560
1552 1553 1556 1556 1553 1557 1557 1553 1553 1554 1555 1557 1556 1556 1555 1554 1555 1555 1553 1553 1553 1553 1554 1555 1556 1558 1560 1561 1563 1564 1565 1565 1566 1566 1566 1567 1567 1567 1566 1566 1566 1565 1565 1564 1564 1563 1562 1562 1561
1553 1554 1557 1553 1553 1555 1555 1553 1553 1554 1556 1556 1555 1555 1554 1553 1554 1553 1552 1552 1552 1553 1554 1555 1556 1558 1559 1561 1563 1564 1565 1565 1566 1566 1567 1567 1567 1567 1567 1567 1566 1566 1565 1565 1564 1564 1563 1563 1562
1554 1556 1556 1552 1555 1554 1553 1552 1554 1554 1555 1555 1555 1553 1553 1553 1552 1552 1551 1551 1552 1552 1553 1554 1555 1557 1559 1561 1562 1563 1564 1565 1566 1567 1567 1567 1568 1567 1567 1567 1566 1566 1566 1565 1565 1564 1564 1563 1563
1554 1554 1552 1554 1554 1553 1553 1554 1555 1553 1553 1554 1554 1551 1551 1551 1550 1550 1550 1551 1551 1552 1553 1554 1555 1557 1558 1560 1562 1563 1564 1565 1566 1567 1567 1568 1568 1568 1567 1567 1567 1566 1566 1566 1565 1565 1565 1564 1563
1555 1552 1552 1554 1552 1552 1552 1554 1554 1553 1552 1553 1553 1551 1550 1549 1549 1549 1549 1549 1550 1551 1552 1553 1554 1556 1558 1560 1561 1562 1564 1565 1566 1567 1567 1568 1568 1568 1568 1567 1567 1566 1566 1566 1566 1565 1565 1564 1564
1555 1551 1552 1553 1553 1552 1552 1554 1553 1552 1551 1551 1551 1550 1548 1548 1547 1547 1548 1548 1548 1549 1550 1552 1553 1555 1557 1559 1560 1562 1563 1564 1565 1566 1567 1568 1568 1568 1568 1567 1567 1567 1566 1566 1566 1565 1565 1564 1564
1554 1553 1553 1553 1553 1552 1552 1553 1553 1552 1550 1550 1550 1548 1546 1547 1546 1545 1545 1545 1546 1547 1548 1550 1552 1554 1556 1558 1559 1561 1562 1564 1565 1566 1567 1567 1568 1568 1568 1567 1567 1567 1566 1566 1566 1565 1565 1564 1563
1553 1554 1553 1552 1552 1550 1552 1552 1552 1551 1550 1548 1547 1546 1545 1544 1543 1542 1542 1543 1543 1544 1546 1548 1550 1552 1555 1557 1558 1560 1561 1563 1564 1565 1566 1566 1567 1568 1568 1567 1567 1567 1566 1566 1565 1565 1564 1563 1563
1554 1552 1550 1551 1551 1550 1551 1551 1550 1549 1546 1545 1544 1543 1541 1540 1539 1539 1539 1539 1540 1542 1544 1545 1548 1550 1553 1555 1557 1558 1560 1561 1562 1564 1565 1565 1566 1567 1567 1566 1566 1566 1565 1565 1564 1564 1563 1563 1562
1552 1550 1550 1551 1551 1551 1551 1550 1549 1547 1543 1542 1542 1541 1539 1536 1535 1535 1535 1536 1537 1539 1541 1543 1545 1548 1550 1552 1554 1556 1558 1559 1561 1562 1563 1563 1564 1565 1565 1565 1565 1564 1564 1564 1563 1563 1562 1561 1560
1552 1550 1551 1550 1551 1550 1549 1548 1547 1545 1544 1542 1539 1537 1534 1533 1532 1531 1531 1532 1534 1535 1537 1540 1543 1545 1547 1550 1552 1554 1555 1557 1558 1559 1560 1561 1562 1562 1563 1563 1563 1563 1562 1562 1561 1561 1560 1559 1558
1551 1550 1550 1550 1549 1549 1548 1546 1545 1543 1542 1539 1536 1534 1531 1529 1528 1527 1526 1528 1529 1531 1534 1537 1540 1542 1545 1547 1549 1551 1553 1554 1556 1556 1558 1559 1559 1560 1560 1560 1560 1560 1560 1559 1558 1558 1557 1555 1554
1551 1550 1549 1548 1547 1546 1546 1544 1544 1540 1540 1538 1536 1533 1530 1527 1524 1523 1522 1524 1526 1528 1531 1534 1537 1540 1542 1544 1546 1548 1550 1551 1553 1553 1554 1555 1556 1557 1557 1557 1556 1556 1556 1555 1555 1554 1553 1551 1550
1551 1549 1545 1545 1545 1545 1545 1539 1539 1540 1539 1537 1535 1533 1529 1526 1523 1521 1520 1521 1523 1526 1528 1531 1534 1537 1539 1541 1543 1545 1546 1548 1549 1550 1551 1552 1553 1553 1553 1553 1553 1552 1552 1551 1550 1549 1548 1546 1545
1549 1546 1542 1542 1544 1544 1545 1537 1537 1538 1538 1536 1535 1533 1530 1527 1524 1522 1520 1520 1522 1524 1527 1529 1531 1534 1536 1538 1540 1542 1543 1544 1545 1546 1547 1548 1548 1549 1549 1548 1548 1548 1547 1546 1545 1544 1542 1540 1538
1545 1542 1541 1541 1543 1542 1541 1536 1535 1537 1537 1536 1535 1534 1532 1529 1526 1523 1522 1522 1523 1524 1526 1528 1529 1531 1533 1535 1537 1538 1539 1540 1541 1542 1542 1543 1543 1544 1544 1543 1543 1542 1541 1539 1538 1537 1536 1534 1532
1542 1541 1541 1540 1540 1541 1539 1534 1533 1535 1536 1535 1535 1534 1533 1530 1528 1526 1525 1524 1524 1525 1526 1527 1528 1530 1531 1533 1534 1535 1536 1537 1537 1537 1538 1538 1538 1538 1538 1537 1537 1536 1534 1533 1532 1530 1529 1527 1525
1543 1543 1541 1539 1541 1541 1536 1533 1532 1534 1534 1535 1535 1535 1534 1532 1531 1529 1528 1527 1527 1527 1527 1528 1529 1530 1531 1532 1533 1533 1534 1534 1534 1534 1534 1534 1534 1533 1532 1531 1530 1529 1527 1526 1525 1523 1521 1519 1518
1544 1543 1539 1537 1542 1540 1535 1532 1530 1532 1533 1534 1535 1535 1535 1534 1533 1531 1530 1530 1529 1529 1529 1529 1530 1531 1531 1532 1533 1533 1533 1533 1532 1532 1531 1530 1529 1528 1527 1526 1524 1523 1521 1519 1518 1516 1514 1512 1511
1543 1540 1537 1538 1538 1540 1538 1527 1528 1531 1533 1535 1535 1535 1535 1535 1534 1533 1533 1532 1532 1531 1531 1531 1532 1532 1532 1533 1533 1533 1532 1531 1531 1530 1528 1527 1525 1524 1522 1521 1519 1517 1515 1513 1511 1510 1507 1504 1504
1538 1537 1540 1541 1538 1531 1536 1526 1523 1526 1530 1532 1534 1535 1535 1535 1535 1534 1534 1534 1534 1533 1533 1533 1534 1533 1533 1533 1533 1532 1531 1530 1529 1527 1525 1524 1522 1520 1518 1516 1514 1511 1509 1507 1505 1503 1500 1497 1495
1536 1540 1541 1540 1538 1534 1533 1529 1517 1524 1525 1527 1531 1534 1535 1535 1535 1535 1535 1535 1535 1535 1535 1535 1535 1534 1534 1533 1532 1531 1530 1528 1526 1524 1522 1520 1518 1515 1513 1511 1508 1506 1503 1500 1498 1496 1493 1489 1487
1540 1541 1542 1541 1537 1532 1527 1527 1515 1516 1517 1521 1528 1532 1534 1534 1535 1535 1535 1536 1536 1536 1536 1536 1535 1534 1533 1532 1531 1529 1528 1525 1523 1521 1518 1516 1513 1511 1508 1505 1502 1499 1496 1494 1491 1488 1485 1482 1478
1538 1535 1534 1531 1529 1522 1530 1529 1513 1512 1516 1518 1524 1529 1532 1533 1534 1534 1535 1536 1536 1536 1536 1535 1535 1534 1532 1531 1529 1527 1525 1522 1520 1517 1514 1511 1508 1506 1503 1499 1496 1493 1489 1486 1483 1479 1476 1473 1470
1531 1531 1530 1528 1523 1520 1530 1523 1510 1516 1519 1521 1523 1527 1529 1532 1533 1533 1534 1535 1535 1535 1535 1534 1533 1532 1530 1528 1526 1524 1521 1519 1516 1513 1510 1507 1503 1500 1496 1493 1489 1485 1481 1478 1474 1470 1466 1463 1460
1530 1528 1528 1527 1531 1526 1515 1514 1510 1516 1517 1519 1521 1525 1527 1529 1531 1532 1533 1533 1534 1534 1533 1532 1531 1529 1527 1525 1523 1521 1518 1515 1512 1509 1505 1501 1498 1493 1490 1486 1481 1477 1473 1469 1465 1460 1457 1454 1450
1528 1526 1530 1528 1527 1522 1514 1512 1505 1509 1512 1516 1519 1522 1525 1527 1529 1530 1531 1531 1532 1531 1531 1530 1528 1526 1524 1522 1520 1517 1514 1511 1507 1504 1500 1496 1491 1487 1482 1477 1473 1469 1464 1460 1456 1451 1448 1444 1441
1530 1530 1525 1524 1524 1521 1517 1508 1504 1505 1509 1513 1516 1520 1523 1525 1526 1527 1528 1529 1529 1529 1528 1527 1525 1523 1521 1518 1515 1512 1509 1506 1502 1498 1493 1489 1484 1479 1474 1469 1464 1460 1455 1451 1447 1443 1439 1435 1431
1521 1519 1521 1522 1521 1523 1517 1510 1507 1508 1511 1513 1516 1519 1521 1522 1524 1525 1526 1526 1526 1526 1525 1523 1521 1519 1517 1514 1511 1507 1504 1500 1496 1491 1487 1482 1476 1471 1466 1461 1456 1451 1446 1442 1438 1433 1429 1425 1421